Location: Powder Track
(41.8531°N, 72.3584°W)
Time: 00:43:08
(UTC+00:00)

Vanguard 2 Rocket - Pass Details

Date: 05 August 2021
Orbit: 556 x 3324 km, 32.9° (Epoch: 22 September)

Event Time Altitude Azimuth Distance (km) Brightness Sun altitude
Rises 12:37:51 0° 250° (WSW) 2,991 9.1 30.1°
Reaches altitude 10° 12:40:38 10° 237° (WSW) 1,916 8.3 30.6°
Maximum altitude 12:44:00 24° 181° (S) 1,161 7.7 31.2°
Drops below altitude 10° 12:47:17 10° 125° (SE) 1,867 9.6 31.8°
Sets 12:49:58 0° 111° (ESE) 2,893 10.5 32.3°
